Terminal Aerodrome Forecast
Issued by NWS St Louis, MO

Home | Current Version | Previous Version | Text Only | Print | Product List | Glossary On
Versions: 1 2 3 4 5 6 7 8 9 10 11 12 13 14 15 16 17 18 19 20 21 22 23 24 25 26 27 28 29
711
FTUS43 KLSX 191457 AAA
TAFSTL
TAF AMD
KSTL 191457Z 1915/2018 30012G20KT P6SM SKC
     FM200000 VRB04KT P6SM SKC
     FM201300 19010KT P6SM SKC=

USA.gov is the U.S. government's official web portal to all federal, state and local government web resources and services.